DB0OHL Weather Reports


Display with metric or nautical units.
time (UTC)temp
F
wind
direction
speed
MPH
gust
MPH
rain 1hr
in
rain 24hr
in
rain mn
in
humidity
%
barometer
mb
20260506122544 45 2.0 6.0 0.05 0.93 0.91 99 1007.6
20260506121542 45 3.0 8.0 0.05 0.92 0.90 99 1007.7
20260506120539 45 4.0 8.0 0.04 0.91 0.89 99 1007.5
20260506115537 45 3.0 8.0 0.05 0.91 0.89 99 1007.5
20260506114534 45 2.0 8.0 0.05 0.90 0.87 99 1007.3
20260506113532 45 2.0 7.0 0.06 0.90 0.87 99 1007.3
20260506112529 45 3.0 7.0 0.06 0.89 0.86 99 1007.4
20260506111527 45 2.0 7.0 0.06 0.87 0.85 99 1007.3
20260506110524 45 2.0 5.0 0.07 0.87 0.85 99 1007.2
20260506105522 45 2.0 6.0 0.06 0.86 0.84 99 1007.2
20260506104519 45 2.0 8.0 0.05 0.85 0.83 99 1007.2
20260506103516 45 3.0 7.0 0.05 0.84 0.81 99 1007.1
20260506102614 45 2.0 10.0 0.04 0.83 0.80 99 1007.0
20260506101612 45 3.0 10.0 0.04 0.81 0.79 99 1006.9
20260506100609 45 2.0 6.0 0.04 0.80 0.78 99 1006.8
20260506095606 45 3.0 8.0 0.05 0.80 0.78 99 1006.7
20260506094604 45 3.0 7.0 0.06 0.80 0.78 99 1006.7
20260506093601 45 3.0 8.0 0.05 0.79 0.77 99 1006.7
20260506092559 45 4.0 8.0 0.05 0.79 0.77 99 1006.6
20260506091556 46 3.0 7.0 0.04 0.78 0.76 99 1006.5
20260506090554 46 3.0 8.0 0.02 0.77 0.74 99 1006.4
20260506085551 46 2.0 5.0 0.01 0.76 0.73 99 1006.5
20260506084549 47 2.0 7.0 0.00 0.74 0.72 99 1006.3
20260506083546 47 3.0 8.0 0.01 0.74 0.72 99 1006.4
20260506082544 46 2.0 5.0 0.01 0.74 0.72 99 1006.2
20260506081541 46 3.0 8.0 0.02 0.74 0.72 99 1006.3
20260506080539 47 3.0 8.0 0.04 0.74 0.72 99 1006.3
20260506072529 47 4.0 10.0 0.07 0.73 0.71 99 1006.0
20260506071526 47 2.0 5.0 0.07 0.72 0.70 99 1006.0
20260506070524 47 1.0 5.0 0.07 0.71 0.69 99 1006.0
20260506061611 47 3.0 8.0 0.05 0.77 0.63 99 1005.7
20260506060609 47 4.0 9.0 0.05 0.78 0.61 99 1005.6
20260506050553 47 3.0 8.0 0.05 0.89 0.57 99 1005.7
20260506044548 47 2.0 7.0 0.05 0.96 0.56 99 1005.6
20260506043546 47 3.0 8.0 0.05 0.96 0.54 99 1005.6
20260506042543 47 3.0 8.0 0.05 0.96 0.53 99 1005.6
20260506041541 47 3.0 9.0 0.05 0.94 0.52 99 1005.5
20260506040538 47 3.0 8.0 0.06 0.96 0.52 99 1005.5
20260506035536 47 2.0 5.0 0.05 0.96 0.51 99 1005.6
20260506034533 47 2.0 6.0 0.06 0.96 0.51 99 1005.5
20260506033600 47 3.0 8.0 0.06 0.94 0.50 99 1005.6
20260506032558 48 2.0 7.0 0.07 0.93 0.48 99 1005.6
20260506031555 48 2.0 6.0 0.07 0.92 0.47 99 1005.7
20260506030553 48 2.0 6.0 0.07 0.92 0.46 99 1005.8
20260506025550 48 4.0 11.0 0.07 0.92 0.46 99 1005.7
20260506024548 48 3.0 11.0 0.08 0.91 0.45 99 1005.8
20260506023545 48 3.0 8.0 0.08 0.90 0.44 99 1005.9
20260506022543 48 3.0 8.0 0.08 0.87 0.41 99 1005.9
20260506021540 48 2.0 8.0 0.08 0.86 0.40 99 1005.9
20260506020538 48 3.0 8.0 0.08 0.85 0.39 99 1005.9
20260506015535 48 3.0 12.0 0.09 0.85 0.39 99 1006.0
20260506014533 48 4.0 8.0 0.08 0.83 0.37 99 1006.0
20260506013531 48 3.0 8.0 0.08 0.81 0.35 99 1006.0
20260506012528 48 3.0 8.0 0.07 0.79 0.33 99 1006.0
20260506011525 48 3.0 8.0 0.07 0.78 0.32 99 1006.1
20260506010523 48 3.0 8.0 0.08 0.77 0.31 99 1006.2
20260506005520 48 3.0 8.0 0.08 0.76 0.30 99 1006.3
20260506004517 48 3.0 9.0 0.08 0.74 0.28 99 1006.3
20260506003515 48 4.0 8.0 0.09 0.73 0.27 99 1006.4
20260506002613 48 3.0 8.0 0.09 0.72 0.26 99 1006.5
20260506001610 48 3.0 5.0 0.11 0.71 0.25 99 1006.5
20260506000608 48 3.0 8.0 0.13 0.69 0.22 99 1006.6
20260505235605 48 3.0 8.0 0.14 0.67 0.21 99 1006.8
20260505234603 48 3.0 8.0 0.15 0.66 0.20 99 1007.0
20260505233600 48 2.0 8.0 0.14 0.64 0.18 99 1007.1
20260505232557 48 3.0 9.0 0.14 0.63 0.17 99 1006.9
20260505231555 48 4.0 8.0 0.13 0.60 0.14 99 1007.0
20260505230552 49 2.0 9.0 0.09 0.56 0.09 99 1007.2
20260505225550 49 3.0 11.0 0.07 0.53 0.07 99 1007.2
20260505224547 49 4.0 11.0 0.06 0.51 0.05 99 1007.1
20260505223545 49 3.0 6.0 0.05 0.50 0.04 99 1007.3
20260505222542 49 3.0 7.0 0.04 0.48 0.02 99 1007.3
20260505221540 49 3.0 6.0 0.04 0.47 0.01 99 1007.3
20260505220537 49 2.0 6.0 0.02 0.46 0.00 99 1007.4
20260505215535 49 3.0 7.0 0.02 0.46 0.46 99 1007.5
20260505214532 49 3.0 7.0 0.01 0.45 0.45 99 1007.4
20260505213530 49 3.0 8.0 0.01 0.45 0.45 99 1007.5
20260505212527 49 2.0 7.0 0.01 0.45 0.45 99 1007.6
20260505211524 49 3.0 8.0 0.00 0.44 0.44 99 1007.7
20260505210522 49 4.0 9.0 0.00 0.44 0.44 99 1007.7
20260505205519 49 2.0 9.0 0.00 0.44 0.44 99 1007.7
20260505204517 49 3.0 8.0 0.00 0.44 0.44 99 1007.8
20260505203615 49 2.0 6.0 0.00 0.44 0.44 99 1007.7
20260505202612 49 2.0 5.0 0.00 0.44 0.44 99 1007.8
20260505201610 49 3.0 8.0 0.00 0.44 0.44 99 1007.7
20260505200607 49 3.0 6.0 0.00 0.44 0.44 99 1007.8
20260505195605 49 3.0 8.0 0.00 0.45 0.44 99 1007.7
20260505194602 49 2.0 5.0 0.00 0.45 0.44 99 1007.9
20260505193559 49 2.0 5.0 0.00 0.45 0.44 99 1007.8
20260505192557 49 3.0 5.0 0.00 0.45 0.44 99 1007.7
20260505191554 49 2.0 5.0 0.00 0.45 0.44 99 1007.7
20260505190552 49 3.0 8.0 0.00 0.45 0.44 99 1007.6
20260505185549 49 2.0 7.0 0.00 0.45 0.44 99 1007.6
20260505184547 49 3.0 8.0 0.00 0.45 0.44 99 1007.6
20260505183544 49 3.0 8.0 0.00 0.45 0.44 99 1007.5
20260505182542 49 2.0 7.0 0.00 0.45 0.44 99 1007.5
20260505181539 49 2.0 6.0 0.00 0.45 0.44 99 1007.5
20260505180537 49 2.0 8.0 0.00 0.45 0.44 99 1007.6
20260505175534 49 3.0 7.0 0.00 0.45 0.44 99 1007.5
20260505174532 49 2.0 7.0 0.00 0.45 0.44 99 1007.6
20260505173529 49 2.0 8.0 0.00 0.45 0.44 99 1007.7
20260505172526 49 2.0 6.0 0.00 0.45 0.44 99 1007.6
20260505171524 49 3.0 7.0 0.00 0.45 0.44 99 1007.6
20260505170521 49 3.0 7.0 0.00 0.45 0.44 99 1007.6
20260505165519 49 2.0 7.0 0.00 0.45 0.44 99 1007.8
20260505164516 49 2.0 5.0 0.00 0.45 0.44 99 1007.6
20260505163614 49 2.0 5.0 0.00 0.45 0.44 99 1007.6
20260505162612 49 2.0 7.0 0.00 0.45 0.44 99 1007.6
20260505161609 50 2.0 6.0 0.00 0.45 0.44 99 1007.6
20260505160606 50 3.0 6.0 0.00 0.45 0.44 99 1007.7
20260505152556 49 3.0 7.0 0.00 0.45 0.44 99 1008.1
20260505151554 49 3.0 7.0 0.00 0.45 0.44 99 1008.1
20260505150551 50 2.0 6.0 0.00 0.45 0.44 99 1008.3
20260505140536 50 3.0 8.0 0.00 0.45 0.44 99 1008.4
20260505124515 50 3.0 8.0 0.00 0.45 0.44 99 1008.8
20260505123613 51 1.0 5.0 0.00 0.45 0.44 99 1009.0